Showing default

LQSAT, 40958

Orbit data source: Space-Track

LQSAT, 40958 is a payload satellite owned by Changguang WJ (CN) in SSO that was launched on Wed, 07 Oct 2015 UTC via a CHANG ZHENG 2D launch vehicle from the Jiuquan Satellite Launch Center, China (JSC). Payload-class satellites include a variety of spacecraft equipped with specific instruments for various scientific and technological missions. These include communications satellites like Starlink; space stations such as the ISS; scientific satellites like the Hubble; Earth observation satellites from companies like Planet Labs, Umbra, and HawkEye 360; GPS; miniature CubeSats for education and research; and military/defense satellites.

Loading next visibility...
Identifier
40958, 2015-057A
Orbit
SSO
Country
Flag of CNCN / PRC
Related business
Manufacturer
HARB/CIOMP
Mission
Non-operational Commercial Imaging
Bus & Motor
JL-1, Unknown motor
Mass
50 kg wet, 50 kg dry
Launch date (UTC)
2015-10-07 (11 years ago)
Launch vehicle
CHANG ZHENG 2D
Launch site
Jiuquan Satellite Launch Center, China (JSC)
Object type
Payload
Rocket body
Debris
Shape & HBR
Box, 0.3 m
Radar Cross Section
0.320 m², Medium (>0.1 m² and < 1m²)

Expand to show TLE details & history
Last TLE update: 23 hours ago

TLE from 23 hours ago
0 LQSAT
1 40958U 15057A   26172.47396014  .00000519  00000-0  80804-4 0  9995
2 40958  97.6685 165.6370 0015376 258.0033 101.9455 14.76787685575944
Epoch: 2026-06-21T11:22Z
TLE epoch observation values (Epoch: 2026-06-21T11:22:30.156Z)
Latitude
0.00005°
Longitude
85.33763°
Altitude
644.756 km
Speed
7.534 km/s
True Right ascension
11h 02m 32s
True Declination
0° 00' 00"
Sunlit
Object was in daylight at epoch
Visualization orbit readout
Latitude
Unknown
Longitude
Unknown
Altitude
Unknown
Speed
Unknown
Apparent Right ascension
Unknown
Apparent Declination
Unknown
Sunlit
N/A
Visualization observer readout
Local Sidereal Time
21:35:40
Azimuth
Unknown
Elevation
Unknown
Doppler factor
Unknown
Orbital elements
Apogee altitude
647.303 km
Perigee altitude
625.731 km
Semi-major axis
7,014.654 km
Eccentricity
0.00154
Inclination
97.6685°
RAAN
165.637°
Arg. of periapsis
258.0033°
True anomaly
102.11781°
Mean anomaly
101.9455°
Eccentric anomaly
102.03166°
Mean motion
3.69431 °/min
Orbital period
97.45 mins
BSTAR
0.000080804
Loading maneuver chart data...
Computing Atmospheric mass density...
Loading historical data...
Loading historical data...
Loading historical data...
Loading historical data...
Loading historical data...
Loading historical data...
Loading historical data...
Other satellites on launch #57 in the year 2015 (2015-10-07 UTC)

Documentation

Showing up to 5 results
|